This demonstration page uses our WeatherBlox Daily Observations layout. Learn more.

Left ArrowRight Arrow

39.12711, -84.51439

Hourly Observations for August 14, 2016

Temp ( °F °C ) Dew Point ( °F °C ) Humidity (%) Winds ( mph kmh ) Pressure ( in mb ) Visibility ( mi km ) Precip ( " mm )
12:53 am 00:53 Cloudy 75 23.9 74 23.3 96 96 W 5 7 29.99 1016 10 16 N/A
1:53 am 01:53 Mostly Clear 74 23.3 74 23.3 100 100 SW 6 9 29.98 1015 10 16 N/A
2:38 am 02:38 Mostly Cloudy 73 23 73 23 100 100 N N/A 29.97 1015 10 16 N/A
2:53 am 02:53 Mostly Cloudy 75 23.9 73 22.8 94 94 SW 3 6 29.98 1015 10 16 N/A
3:32 am 03:32 Cloudy 75 23.9 74 23.3 96 96 SW 5 7 29.97 1015 10 16 N/A
3:53 am 03:53 Mostly Cloudy 74 23.3 73 22.8 97 97 SW 3 6 29.98 1015 10 16 N/A
4:53 am 04:53 Mostly Cloudy 74 23.3 74 23.3 100 100 S 5 7 29.99 1016 10 16 N/A
5:53 am 05:53 Cloudy 74 23.3 74 23.3 100 100 N N/A 29.99 1016 10 16 N/A
6:37 am 06:37 Cloudy 74 23.3 74 23.3 100 100 S 6 9 30.00 1016 9 14 N/A
6:53 am 06:53 Cloudy 74 23.3 74 23.3 100 100 S 3 6 30.01 1016 10 16 N/A
7:31 am 07:31 Cloudy 74 23.3 74 23.3 100 100 S 3 6 30.00 1016 10 16 N/A
7:50 am 07:50 Cloudy 75 24 73 23 94 94 S 7 11 30.00 1016 10 16 N/A
7:53 am 07:53 Cloudy 75 23.9 74 23.3 96 96 SSW 6 9 30.01 1016 10 16 N/A
8:53 am 08:53 Cloudy 76 24.4 75 23.9 97 97 S 7 11 30.03 1017 10 16 N/A
9:53 am 09:53 Cloudy 78 25.6 74 23.3 87 87 SW 9 15 30.05 1018 10 16 N/A
10:23 am 10:23 Cloudy 78 25.6 74 23.3 87 87 WSW 7 11 30.03 1017 10 16 N/A
10:33 am 10:33 Cloudy 78 25.6 74 23.3 87 87 SW 6 9 30.03 1017 10 16 N/A
10:53 am 10:53 Mostly Cloudy 79 26.1 74 23.3 85 85 W 8 13 30.06 1018 10 16 N/A
11:53 am 11:53 Cloudy 79 26.1 73 22.8 82 82 WSW 9 15 30.08 1019 10 16 N/A
12:30 pm 12:30 Mostly Cloudy 81 27 73 23 79 79 WSW 12 19 30.06 1018 10 16 N/A
12:53 pm 12:53 Partly Cloudy 80 26.7 73 22.8 79 79 WSW 14 22 30.07 1018 10 16 N/A
1:53 pm 13:53 Partly Cloudy 84 28.9 74 23.3 72 72 SW 12 19 30.06 1018 10 16 N/A
2:35 pm 14:35 Mostly Cloudy with Rain 77 25 75 23.9 94 94 NNW 15 24 30.06 1018 2 3 0.14 3.56
2:42 pm 14:42 Cloudy 75 24 75 24 100 100 N 8 13 30.06 1018 7 11 N/A
2:53 pm 14:53 Partly Cloudy 79 26.1 76 24.4 90 90 N 6 9 30.07 1018 10 16 0.15 3.81
3:53 pm 15:53 Partly Cloudy 84 29 N/A N/A E 3 6 30.05 1018 10 16 N/A
4:53 pm 16:53 Mostly Cloudy 84 28.9 77 25 80 80 E 5 7 30.04 1017 10 16 N/A
5:53 pm 17:53 Partly Cloudy 84 28.9 75 23.9 74 74 SSW 3 6 30.04 1017 10 16 N/A
6:53 pm 18:53 Partly Cloudy 82 27.8 72 22.2 72 72 SW 12 19 30.05 1018 10 16 N/A
7:53 pm 19:53 Mostly Sunny 82 27.8 73 22.8 74 74 WNW 7 11 30.05 1018 10 16 N/A
8:53 pm 20:53 Mostly Clear 77 25 75 23.9 94 94 E 5 7 30.08 1019 10 16 N/A
9:53 pm 21:53 Clear 75 23.9 75 23.9 100 100 NE 3 6 30.09 1019 10 16 N/A
10:53 pm 22:53 Clear 76 24.4 75 23.9 97 97 NE 3 6 30.10 1019 9 14 N/A
11:36 pm 23:36 Mostly Cloudy 75 24 75 24 100 100 N N/A 30.09 1019 7 11 N/A
11:53 pm 23:53 Cloudy 75 23.9 75 23.9 100 100 NNE 3 6 30.11 1020 9 14 N/A

Powered by AerisWeather